| time (UTC) | temp F | wind direction | speed knots | gust knots | rain 1hr in | rain 24hr in | rain mn in | humidity % | barometer mb |
| 20260905103027 | 69 | 46 | 3.5 | 0.0 | 0.00 | 0.00 | 0.00 | 100 | 1010.6 |
| 20260905101524 | 70 | 25 | 4.3 | 0.0 | 0.00 | 0.00 | 0.00 | 100 | 1010.5 |
| 20260905100010 | 70 | 32 | 3.5 | 0.0 | 0.00 | 0.00 | 0.00 | 100 | 1010.4 |
| 20260905094501 | 70 | 345 | 3.5 | 0.0 | 0.00 | 0.00 | 0.00 | 100 | 1010.4 |
| 20260905093052 | 70 | 40 | 3.5 | 0.0 | 0.00 | 0.00 | 0.00 | 100 | 1010.3 |
| 20260905091643 | 70 | 16 | 5.2 | 0.0 | 0.00 | 0.00 | 0.00 | 100 | 1010.3 |
| 20260905090035 | 70 | 355 | 5.2 | 0.0 | 0.00 | 0.00 | 0.00 | 100 | 1010.3 |
| 20260905084525 | 70 | 5 | 4.3 | 0.0 | 0.00 | 0.00 | 0.00 | 100 | 1010.3 |
| 20260905083020 | 70 | 348 | 6.1 | 0.0 | 0.00 | 0.00 | 0.00 | 100 | 1010.3 |
| 20260905081507 | 71 | 360 | 3.5 | 0.0 | 0.00 | 0.00 | 0.00 | 100 | 1010.4 |
| 20260905080105 | 70 | 5 | 3.5 | 0.0 | 0.00 | 0.00 | 0.00 | 100 | 1010.5 |
| 20260905074549 | 70 | 31 | 1.7 | 0.0 | 0.00 | 0.00 | 0.00 | 100 | 1010.5 |
| 20260905073039 | 70 | 34 | 1.7 | 0.0 | 0.00 | 0.00 | 0.00 | 100 | 1010.5 |
| 20260905071535 | 70 | 5 | 2.6 | 0.0 | 0.00 | 0.00 | 0.00 | 100 | 1010.5 |
| 20260905070124 | 71 | 42 | 2.6 | 0.0 | 0.00 | 0.00 | 0.00 | 100 | 1010.7 |
| 20260905064515 | 71 | 9 | 2.6 | 0.0 | 0.00 | 0.00 | 0.00 | 100 | 1010.7 |
| 20260905063004 | 71 | 41 | 5.2 | 0.0 | 0.00 | 0.00 | 0.00 | 100 | 1010.8 |
| 20260905061558 | 71 | 35 | 4.3 | 0.0 | 0.00 | 0.00 | 0.00 | 100 | 1010.8 |
| 20260905060147 | 71 | 46 | 3.5 | 0.0 | 0.00 | 0.00 | 0.00 | 100 | 1010.8 |
| 20260905054550 | 71 | 355 | 3.5 | 0.0 | 0.00 | 0.00 | 0.00 | 100 | 1010.7 |
| 20260905053029 | 71 | 5 | 3.5 | 0.0 | 0.00 | 0.00 | 0.00 | 100 | 1010.9 |
| 20260905051519 | 72 | 355 | 3.5 | 0.0 | 0.00 | 0.00 | 0.00 | 100 | 1010.9 |
| 20260905050010 | 72 | 355 | 4.3 | 0.0 | 0.00 | 0.00 | 0.00 | 100 | 1011.0 |
| 20260905044502 | 72 | 323 | 4.3 | 0.0 | 0.00 | 0.00 | 0.00 | 100 | 1011.1 |
| 20260905043052 | 73 | 30 | 5.2 | 0.0 | 0.00 | 0.00 | 0.00 | 100 | 1011.1 |
| 20260905041542 | 73 | 22 | 5.2 | 0.0 | 0.00 | 0.00 | 0.00 | 100 | 1011.0 |
| 20260905040044 | 73 | 32 | 8.7 | 0.0 | 0.00 | 0.00 | 0.00 | 100 | 1010.9 |
| 20260905034530 | 73 | 56 | 7.8 | 0.0 | 0.00 | 0.00 | 0.00 | 100 | 1011.0 |
| 20260905033115 | 74 | 49 | 7.0 | 0.0 | 0.00 | 0.00 | 0.00 | 100 | 1010.9 |
| 20260905031506 | 73 | 41 | 7.0 | 0.0 | 0.00 | 0.00 | 0.00 | 100 | 1010.8 |
| 20260905030104 | 73 | 14 | 5.2 | 0.0 | 0.00 | 0.00 | 0.00 | 100 | 1010.7 |
| 20260905024558 | 73 | 44 | 3.5 | 0.0 | 0.00 | 0.00 | 0.00 | 100 | 1010.8 |
| 20260905023141 | 73 | 20 | 2.6 | 0.0 | 0.00 | 0.00 | 0.00 | 100 | 1010.8 |
| 20260905021530 | 73 | 40 | 1.7 | 0.0 | 0.00 | 0.00 | 0.00 | 100 | 1010.9 |
| 20260905020026 | 73 | 5 | 2.6 | 0.0 | 0.00 | 0.00 | 0.00 | 100 | 1010.9 |
| 20260905014613 | 73 | 15 | 6.1 | 0.0 | 0.00 | 0.00 | 0.00 | 100 | 1011.0 |
| 20260905013104 | 73 | 348 | 7.0 | 0.0 | 0.00 | 0.00 | 0.00 | 100 | 1010.9 |
| 20260905011554 | 73 | 331 | 5.2 | 0.0 | 0.00 | 0.00 | 0.00 | 100 | 1010.9 |
| 20260905010149 | 73 | 327 | 4.3 | 0.0 | 0.00 | 0.00 | 0.00 | 100 | 1010.9 |
| 20260905004538 | 73 | 327 | 4.3 | 0.0 | 0.00 | 0.00 | 0.00 | 100 | 1011.0 |
| 20260905003128 | 73 | 325 | 3.5 | 0.0 | 0.00 | 0.00 | 0.00 | 100 | 1010.8 |
| 20260905001620 | 73 | 323 | 3.5 | 0.0 | 0.00 | 0.00 | 0.00 | 100 | 1010.7 |
| 20260905000010 | 73 | 323 | 3.5 | 0.0 | 0.00 | 0.00 | 0.00 | 100 | 1010.5 |
| 20260904234600 | 73 | 323 | 2.6 | 0.0 | 0.00 | 0.00 | 0.00 | 100 | 1010.4 |
| 20260904233153 | 73 | 323 | 3.5 | 0.0 | 0.00 | 0.00 | 0.00 | 100 | 1010.5 |
| 20260904231542 | 73 | 323 | 2.6 | 0.0 | 0.00 | 0.00 | 0.00 | 100 | 1010.3 |
| 20260904230058 | 73 | 323 | 3.5 | 0.0 | 0.00 | 0.00 | 0.00 | 100 | 1010.1 |
| 20260904224528 | 73 | 323 | 3.5 | 0.0 | 0.00 | 0.00 | 0.00 | 100 | 1010.2 |
| 20260904223015 | 73 | 323 | 2.6 | 0.0 | 0.00 | 0.00 | 0.00 | 100 | 1010.3 |
| 20260904221506 | 74 | 323 | 3.5 | 0.0 | 0.00 | 0.00 | 0.00 | 100 | 1010.3 |
| 20260904220058 | 74 | 322 | 2.6 | 0.0 | 0.00 | 0.00 | 0.00 | 100 | 1010.3 |
| 20260904214548 | 74 | 321 | 3.5 | 0.0 | 0.00 | 0.00 | 0.00 | 100 | 1010.4 |
| 20260904213140 | 74 | 320 | 3.5 | 0.0 | 0.00 | 0.00 | 0.00 | 100 | 1010.4 |
| 20260904211530 | 74 | 317 | 3.5 | 0.0 | 0.00 | 0.00 | 0.00 | 100 | 1010.4 |
| 20260904210122 | 75 | 315 | 2.6 | 0.0 | 0.00 | 0.00 | 0.00 | 100 | 1010.6 |
| 20260904204613 | 74 | 315 | 2.6 | 0.0 | 0.00 | 0.00 | 0.00 | 100 | 1010.7 |
| 20260904203004 | 74 | 319 | 3.5 | 0.0 | 0.00 | 0.00 | 0.00 | 100 | 1010.8 |
| 20260904201557 | 74 | 317 | 3.5 | 0.0 | 0.00 | 0.00 | 0.00 | 100 | 1010.9 |
| 20260904200047 | 74 | 322 | 3.5 | 0.0 | 0.00 | 0.00 | 0.00 | 100 | 1011.2 |
| 20260904194638 | 74 | 322 | 3.5 | 0.0 | 0.00 | 0.00 | 0.00 | 100 | 1011.4 |
| 20260904193037 | 74 | 321 | 3.5 | 0.0 | 0.00 | 0.00 | 0.00 | 100 | 1011.5 |
| 20260904191525 | 74 | 321 | 2.6 | 0.0 | 0.00 | 0.00 | 0.00 | 100 | 1011.6 |
| 20260904184603 | 74 | 321 | 2.6 | 0.0 | 0.00 | 0.00 | 0.00 | 100 | 1011.9 |
| 20260904183153 | 74 | 321 | 3.5 | 0.0 | 0.00 | 0.00 | 0.00 | 100 | 1012.0 |
| 20260904181543 | 73 | 319 | 3.5 | 0.0 | 0.00 | 0.00 | 0.00 | 100 | 1011.9 |
| 20260904180034 | 74 | 316 | 3.5 | 0.0 | 0.00 | 0.00 | 0.00 | 100 | 1011.9 |
| 20260904174626 | 74 | 314 | 2.6 | 0.0 | 0.00 | 0.00 | 0.00 | 100 | 1012.2 |
| 20260904173117 | 73 | 314 | 2.6 | 0.0 | 0.00 | 0.00 | 0.00 | 100 | 1012.1 |
| 20260904171608 | 74 | 317 | 2.6 | 0.0 | 0.00 | 0.00 | 0.00 | 100 | 1012.1 |
| 20260904170201 | 73 | 319 | 2.6 | 0.0 | 0.00 | 0.00 | 0.00 | 100 | 1012.2 |
| 20260904164550 | 73 | 324 | 2.6 | 0.0 | 0.00 | 0.00 | 0.00 | 100 | 1012.3 |
| 20260904163040 | 73 | 331 | 2.6 | 0.0 | 0.00 | 0.00 | 0.00 | 100 | 1012.4 |
| 20260904161532 | 73 | 344 | 2.6 | 0.0 | 0.00 | 0.00 | 0.00 | 100 | 1012.3 |
| 20260904160023 | 73 | 344 | 2.6 | 0.0 | 0.00 | 0.00 | 0.00 | 100 | 1012.3 |
| 20260904154513 | 73 | 344 | 2.6 | 0.0 | 0.00 | 0.00 | 0.00 | 100 | 1012.4 |
| 20260904153003 | 73 | 344 | 1.7 | 0.0 | 0.00 | 0.00 | 0.00 | 100 | 1012.4 |
| 20260904150100 | 73 | 344 | 2.6 | 0.0 | 0.00 | 0.00 | 0.00 | 100 | 1012.1 |
| 20260904144536 | 72 | 344 | 2.6 | 0.0 | 0.00 | 0.00 | 0.00 | 100 | 1012.2 |
| 20260904143028 | 73 | 346 | 2.6 | 0.0 | 0.00 | 0.00 | 0.00 | 100 | 1012.3 |
| 20260904141518 | 72 | 346 | 2.6 | 0.0 | 0.00 | 0.00 | 0.00 | 100 | 1012.2 |
| 20260904140110 | 73 | 346 | 1.7 | 0.0 | 0.00 | 0.00 | 0.00 | 100 | 1012.3 |
| 20260904134558 | 72 | 346 | 2.6 | 0.0 | 0.00 | 0.00 | 0.00 | 100 | 1012.3 |
| 20260904133049 | 72 | 346 | 2.6 | 0.0 | 0.00 | 0.00 | 0.00 | 100 | 1012.3 |
| 20260904131539 | 72 | 347 | 2.6 | 0.0 | 0.00 | 0.00 | 0.00 | 100 | 1012.5 |
| 20260904130041 | 72 | 355 | 1.7 | 0.0 | 0.00 | 0.00 | 0.00 | 100 | 1012.3 |
| 20260904124525 | 71 | 355 | 3.5 | 0.0 | 0.00 | 0.00 | 0.00 | 100 | 1011.9 |
| 20260904123021 | 71 | 351 | 1.7 | 0.0 | 0.00 | 0.00 | 0.00 | 100 | 1011.8 |
| 20260904121503 | 71 | 360 | 4.3 | 0.0 | 0.00 | 0.00 | 0.00 | 100 | 1012.0 |
| 20260904120157 | 71 | 355 | 4.3 | 0.0 | 0.00 | 0.00 | 0.00 | 100 | 1012.0 |
| 20260904114546 | 71 | 351 | 2.6 | 0.0 | 0.00 | 0.00 | 0.00 | 100 | 1012.0 |
| 20260904113039 | 71 | 349 | 0.9 | 0.0 | 0.00 | 0.00 | 0.00 | 100 | 1011.8 |
| 20260904111528 | 71 | 349 | 2.6 | 0.0 | 0.00 | 0.00 | 0.00 | 100 | 1011.8 |
| 20260904110019 | 71 | 350 | 4.3 | 0.0 | 0.00 | 0.00 | 0.00 | 100 | 1011.7 |
| 20260904104610 | 71 | 349 | 3.5 | 0.0 | 0.00 | 0.00 | 0.00 | 100 | 1011.5 |